Notices

What's New in latest Release from April 7th, 2021:

- Updated Glossary, including Speed of Maximum Gust, and Total Hourly Precipitation

- Updated national and regional climate services offices contacts and prices information

- Addition of station inventory lists for 1981-2010, 1971-2000, and 1961-1990 Normals.

If you haven't already, please take our survey and provide feedback about our website: https://eccc.sondage-survey.ca/f/LanguageSelection.aspx?s=442ca660-fcf1-47c0-95a9-59707d6fd709

Hourly Data Report for July 03, 2018

TORONTO CITY
ONTARIO
Current Station Operator: ECCC - MSC

43°40'00.000" N
79°24'00.000" W
112.50 m
6158355
71508
XTO

Download Data

Hourly Data (July 2018)
Hourly Data Report for July 3, 2018
TIME
LST
Temp Definition
°C
Dew Point Definition
°C
Rel Hum Definition
%
Precip. Amount Definition
mm

Wind Dir Definition
10's deg

Wind Spd Definition
km/h
Visibility Definition
km
Stn Press Definition
kPa
Hmdx Definition


Wind Chill Definition


Weather Definition


00:00 22.8 14.3 59 0.0 LegendMM LegendMM   100.63 26   LegendNANA
01:00 21.2 13.9 63 0.0 LegendMM LegendMM   100.66 25   LegendNANA
02:00 20.4 14.8 70 0.0 LegendMM LegendMM   100.70     LegendNANA
03:00 19.8 14.5 71 0.0 LegendMM LegendMM   100.73     LegendNANA
04:00 19.4 14.6 74 0.0 LegendMM LegendMM   100.78     LegendNANA
05:00 19.2 14.5 74 0.0 LegendMM LegendMM   100.84     LegendNANA
06:00 20.2 15.1 73 0.0 LegendMM LegendMM   100.92     LegendNANA
07:00 23.3 13.1 53 0.0 LegendMM LegendMM   100.97 26   LegendNANA
08:00 25.3 13.5 48 0.0 LegendMM LegendMM   101.00 28   LegendNANA
09:00 25.2 12.8 46 0.0 LegendMM LegendMM   101.07 28   LegendNANA
10:00 25.3 12.7 46 0.0 LegendMM LegendMM   101.10 28   LegendNANA
11:00 26.6 14.1 46 0.0 LegendMM LegendMM   101.12 30   LegendNANA
12:00 26.3 11.7 40 0.0 LegendMM LegendMM   101.15 28   LegendNANA
13:00 27.7 12.9 40 0.0 LegendMM LegendMM   101.13 30   LegendNANA
14:00 28.3 11.2 35 0.0 LegendMM LegendMM   101.12 30   LegendNANA
15:00 29.1 11.8 34 0.0 LegendMM LegendMM   101.08 31   LegendNANA
16:00 29.3 11.9 34 0.0 LegendMM LegendMM   101.07 32   LegendNANA
17:00 28.6 10.6 33 0.0 LegendMM LegendMM   101.02 30   LegendNANA
18:00 29.0 9.1 29 0.0 LegendMM LegendMM   101.01 30   LegendNANA
19:00 28.1 10.3 33 0.0 LegendMM LegendMM   100.98 30   LegendNANA
20:00 26.9 10.3 35 0.0 LegendMM LegendMM   101.04 28   LegendNANA
21:00 25.8 12.1 42 0.0 LegendMM LegendMM   101.08 28   LegendNANA
22:00 25.3 12.1 44 0.0 LegendMM LegendMM   101.10 28   LegendNANA
23:00 24.5 12.3 46 0.0 LegendMM LegendMM   101.09 27   LegendNANA

Notes on Data Quality.

Legend

  • E = Estimated
  • M = Missing
  • NA = Not Available*
  • [empty] = Indicates an unobserved value
Date modified: